Weather History for KMTJ - October, 2014

Change the Weather History Date:

Thursday, October 9, 2014

  Actual Average Record
Temperature  
Mean Temperature 54 °F 53 °F  
Max Temperature 58 °F 68 °F 80 °F (2003)
Min Temperature 50 °F 38 °F 30 °F (1997)
Degree Days  
Heating Degree Days 11 12  
Month to date heating degree days 110 95  
Since 1 July heating degree days 166 222  
Cooling Degree Days 0 0  
Month to date cooling degree days 0 0  
Year to date cooling degree days 782 643  
Growing Degree Days 4 (Base 50)    
Moisture  
Dew Point 47 °F    
Average Humidity 77    
Maximum Humidity 96    
Minimum Humidity 57    
Precipitation  
Precipitation 0.44 in 0.04 in 0.44 in (2014)
Month to date precipitation 0.79 0.47  
Year to date precipitation 8.43 9.12  
Sea Level Pressure  
Sea Level Pressure 29.96 in    
Wind  
Wind Speed 4 mph (SE)    
Max Wind Speed 9 mph    
Max Gust Speed 12 mph    
Visibility 9 miles    
Events Rain    
T = Trace of Precipitation, MM = Missing Value Source: NWS Daily Summary

Daily Weather History Graph

Daily Weather History Graph

Search for Another Location

Airport or City:

Trip Planner

Search our weather history database for the weather conditions in past years. The results will help you decide how hot, cold, wet, or windy it might be!

Date:

Astronomy

Oct. 09, 2014 Rise Set
Actual Time 7:14 AM MDT 6:42 PM MDT
Civil Twilight 6:48 AM MDT 7:08 PM MDT
Nautical Twilight 6:17 AM MDT 7:39 PM MDT
Astronomical Twilight 5:46 AM MDT 8:09 PM MDT
Moon 7:41 PM MDT (10/9) 8:32 AM MDT (10/9)
Length of Visible Light 12h 20m
Length of Day
11h 27m
Full, 98% of the Moon is Illuminated
Oct 9
Full
Oct 15
Last Quarter
Oct 23
New
Oct 30
First Quarter
Nov 6
Full

Hourly Weather History & Observations

Time (MDT) Temp. Dew Point Humidity Pressure Visibility Wind Dir Wind Speed Gust Speed Precip Events Conditions
12:53 AM 55.0 °F 43.0 °F 64% 29.89 in 10.0 mi East 4.6 mph - N/A   Overcast
1:53 AM 54.0 °F 44.1 °F 69% 29.89 in 10.0 mi SSE 5.8 mph - N/A   Overcast
2:53 AM 54.0 °F 44.1 °F 69% 29.89 in 10.0 mi SSE 6.9 mph - N/A   Overcast
3:53 AM 53.1 °F 43.0 °F 69% 29.88 in 10.0 mi ESE 3.5 mph - N/A   Scattered Clouds
4:53 AM 53.1 °F 43.0 °F 69% 29.88 in 10.0 mi SE 6.9 mph - N/A   Overcast
5:53 AM 52.0 °F 44.1 °F 74% 29.88 in 10.0 mi ESE 4.6 mph - N/A   Overcast
6:53 AM 54.0 °F 41.0 °F 62% 29.88 in 10.0 mi NNW 5.8 mph - N/A   Mostly Cloudy
7:53 AM 54.0 °F 42.1 °F 64% 29.89 in 10.0 mi West 3.5 mph - N/A   Overcast
8:53 AM 55.9 °F 43.0 °F 62% 29.89 in 10.0 mi Calm Calm - N/A   Mostly Cloudy
9:53 AM 57.0 °F 44.1 °F 62% 29.91 in 10.0 mi SE 4.6 mph - N/A   Overcast
10:53 AM 57.9 °F 43.0 °F 58% 29.91 in 10.0 mi East 5.8 mph - N/A   Overcast
11:53 AM 55.9 °F 45.0 °F 67% 29.92 in 9.0 mi Calm Calm - 0.00 in Rain Light Rain
12:53 PM 54.0 °F 48.9 °F 83% 29.93 in 8.0 mi West 6.9 mph - 0.04 in Rain Light Rain
1:53 PM 52.0 °F 48.9 °F 89% 29.94 in 4.0 mi Calm Calm - 0.11 in Rain Rain
2:17 PM 52.0 °F 48.9 °F 89% 30.08 in 4.0 mi NNW 3.5 mph - 0.05 in Rain Rain
2:32 PM 52.0 °F 50.0 °F 93% 30.07 in 7.0 mi North - - 0.06 in Rain Light Rain
2:53 PM 52.0 °F 50.0 °F 93% 29.94 in 7.0 mi North 4.6 mph - 0.09 in Rain Light Rain
3:25 PM 52.0 °F 50.0 °F 93% 30.07 in 6.0 mi North 3.5 mph - 0.04 in Rain Light Rain
3:53 PM 52.0 °F 50.0 °F 93% 29.94 in 5.0 mi North 3.5 mph - 0.07 in Rain Light Rain
4:49 PM 51.8 °F 50.0 °F 94% 30.07 in 7.0 mi Calm Calm - 0.03 in Rain Light Rain
4:53 PM 53.1 °F 50.0 °F 89% 29.94 in 8.0 mi Calm Calm - 0.03 in Rain Light Rain
5:02 PM 53.1 °F 50.0 °F 89% 30.07 in 9.0 mi Calm Calm - 0.00 in Rain Light Rain
5:15 PM 52.0 °F 48.0 °F 86% 30.07 in 10.0 mi SE 4.6 mph - 0.00 in Rain Light Rain
5:30 PM 52.0 °F 46.0 °F 80% 30.07 in 10.0 mi ESE 3.5 mph - 0.01 in Rain Light Rain
5:53 PM 53.1 °F 45.0 °F 74% 29.94 in 10.0 mi Calm Calm - 0.01 in   Overcast
6:53 PM 52.0 °F 48.9 °F 89% 29.94 in 10.0 mi SSW 3.5 mph - N/A   Overcast
7:53 PM 51.1 °F 48.0 °F 89% 29.95 in 10.0 mi South 3.5 mph - N/A   Overcast
8:53 PM 51.1 °F 48.0 °F 89% 29.95 in 10.0 mi Calm Calm - N/A   Overcast
9:53 PM 50.0 °F 48.0 °F 93% 29.97 in 10.0 mi Calm Calm - 0.01 in Rain Light Rain
10:53 PM 50.0 °F 48.9 °F 96% 29.97 in 9.0 mi South 4.6 mph - 0.02 in Rain Light Rain
11:53 PM 50.0 °F 48.0 °F 93% 29.99 in 10.0 mi South 4.6 mph - 0.02 in Rain Light Rain